Weather History for KANK - January, 2013

Change the Weather History Date:

Thursday, January 3, 2013

  Actual Average (KGUC) Record (KGUC)
Temperature  
Mean Temperature 14 °F -  
Max Temperature 30 °F 24 °F 42 °F (2012)
Min Temperature -3 °F 0 °F -27 °F (2013)
Degree Days  
Heating Degree Days 52    
Moisture  
Dew Point -6 °F    
Average Humidity 49    
Maximum Humidity 73    
Minimum Humidity 21    
Precipitation  
Precipitation 0.00 in - - ()
Sea Level Pressure  
Sea Level Pressure 30.31 in    
Wind  
Wind Speed 4 mph (West)    
Max Wind Speed 15 mph    
Max Gust Speed 21 mph    
Visibility 10 miles    
Events      
Averages and records for this station are not official NWS values.
T = Trace of Precipitation, MM = Missing Value Source: NWS Daily Summary

Daily Weather History Graph

Daily Weather History Graph

Search for Another Location

Airport or City:

Trip Planner

Search our weather history database for the weather conditions in past years. The results will help you decide how hot, cold, wet, or windy it might be!

Date:

Astronomy

Jan. 03, 2013 Rise Set
Actual Time 7:22 AM MST 4:55 PM MST
Civil Twilight 6:52 AM MST 5:25 PM MST
Nautical Twilight 6:19 AM MST 5:58 PM MST
Astronomical Twilight 5:47 AM MST 6:30 PM MST
Moon 11:29 PM MST (1/3) 10:39 AM MST (1/3)
Length of Visible Light 10h 33m
Length of Day
9h 33m
Waning Gibbous, 65% of the Moon is Illuminated
Jan 3
Waning Gibbous
Jan 4
Last Quarter
Jan 11
New
Jan 18
First Quarter
Jan 26
Full

Hourly Weather History & Observations

Time (MST) Temp. Windchill Dew Point Humidity Pressure Visibility Wind Dir Wind Speed Gust Speed Precip Events Conditions
12:15 AM 3.0 °F -9.3 °F -7.4 °F 62% 30.30 in 10.0 mi WSW 6.9 mph - N/A   Clear
12:35 AM 3.4 °F -4.0 °F -6.9 °F 62% 30.31 in 10.0 mi West 3.5 mph - N/A   Clear
12:55 AM 1.9 °F -5.6 °F -7.6 °F 64% 30.32 in 10.0 mi West 3.5 mph - N/A   Clear
1:15 AM 2.1 °F -10.4 °F -7.4 °F 64% 30.32 in 10.0 mi WSW 6.9 mph - N/A   Clear
1:35 AM 2.3 °F -8.8 °F -6.7 °F 66% 30.32 in 10.0 mi West 5.8 mph - N/A   Clear
1:55 AM 2.5 °F - -7.4 °F 63% 30.32 in 10.0 mi Calm Calm - N/A   Clear
2:15 AM 1.9 °F - -6.7 °F 67% 30.33 in 10.0 mi Calm Calm - N/A   Clear
2:35 AM -0.2 °F -8.1 °F -8.9 °F 67% 30.34 in 10.0 mi West 3.5 mph - N/A   Clear
2:55 AM -0.4 °F -10.4 °F -9.4 °F 66% 30.35 in 10.0 mi West 4.6 mph - N/A   Clear
3:15 AM 1.8 °F -9.5 °F -8.9 °F 61% 30.35 in 10.0 mi West 5.8 mph - N/A   Clear
3:35 AM -0.0 °F -11.6 °F -9.6 °F 64% 30.35 in 10.0 mi WSW 5.8 mph - N/A   Clear
3:55 AM 0.5 °F -11.0 °F -9.6 °F 63% 30.34 in 10.0 mi West 5.8 mph - N/A   Clear
4:15 AM -0.4 °F - -9.0 °F 67% 30.34 in 10.0 mi Calm Calm - N/A   Clear
4:35 AM -1.5 °F -9.5 °F -9.0 °F 70% 30.34 in 10.0 mi WSW 3.5 mph - N/A   Clear
4:55 AM -1.7 °F -13.5 °F -9.0 °F 71% 30.34 in 10.0 mi NW 5.8 mph - N/A   Clear
5:15 AM -1.5 °F - -9.0 °F 70% 30.34 in 10.0 mi Calm Calm - N/A   Clear
5:35 AM -3.5 °F -13.9 °F -10.1 °F 73% 30.34 in 10.0 mi WSW 4.6 mph - N/A   Clear
5:55 AM -2.4 °F -14.4 °F -9.8 °F 71% 30.35 in 10.0 mi WSW 5.8 mph - N/A   Clear
6:15 AM -1.7 °F -9.7 °F -8.5 °F 73% 30.35 in 10.0 mi WNW 3.5 mph - N/A   Clear
6:35 AM -2.0 °F -10.1 °F -9.0 °F 72% 30.36 in 10.0 mi WNW 3.5 mph - N/A   Clear
6:55 AM -1.3 °F -11.4 °F -9.2 °F 69% 30.36 in 10.0 mi NW 4.6 mph - N/A   Clear
7:15 AM -3.8 °F -12.2 °F -10.8 °F 72% 30.36 in 10.0 mi SW 3.5 mph - N/A   Clear
7:35 AM -3.5 °F -11.8 °F -10.5 °F 72% 30.36 in 10.0 mi WNW 3.5 mph - N/A   Clear
7:55 AM -0.4 °F -10.4 °F -9.4 °F 66% 30.37 in 10.0 mi WNW 4.6 mph - N/A   Clear
8:35 AM 3.2 °F - -8.5 °F 58% 30.37 in 10.0 mi Calm Calm - N/A   Clear
8:55 AM 5.9 °F - -7.1 °F 55% 30.38 in 10.0 mi Calm Calm - N/A   Clear
9:15 AM 5.4 °F -1.7 °F -8.3 °F 53% 30.38 in 10.0 mi NNW 3.5 mph - N/A   Clear
9:35 AM 7.3 °F - -7.8 °F 50% 30.38 in 10.0 mi Calm Calm - N/A   Clear
9:55 AM 9.0 °F - -7.2 °F 48% 30.38 in 10.0 mi Calm Calm - N/A   Clear
10:15 AM 10.8 °F - -5.6 °F 48% 30.37 in 10.0 mi Calm Calm - N/A   Clear
10:35 AM 12.0 °F - -4.9 °F 47% 30.37 in 10.0 mi Calm Calm - N/A   Clear
10:55 AM 15.6 °F - -3.8 °F 42% 30.35 in 10.0 mi Calm Calm - N/A   Clear
11:15 AM 16.7 °F - -5.4 °F 37% 30.35 in 10.0 mi Calm Calm - N/A   Clear
11:35 AM 18.3 °F - -6.0 °F 34% 30.33 in 10.0 mi Calm Calm - N/A   Clear
11:55 AM 19.8 °F - -5.8 °F 32% 30.31 in 10.0 mi Calm Calm - N/A   Clear
12:35 PM 21.4 °F - -7.1 °F 28% 30.29 in 10.0 mi Calm Calm - N/A   Clear
12:55 PM 23.2 °F - -6.9 °F 27% 30.27 in 10.0 mi Calm Calm - N/A   Clear
1:15 PM 24.3 °F - -6.0 °F 27% 30.26 in 10.0 mi Calm Calm - N/A   Clear
1:35 PM 25.9 °F - -5.8 °F 25% 30.25 in 10.0 mi Calm Calm - N/A   Clear
1:55 PM 27.5 °F - -3.3 °F 26% 30.25 in 10.0 mi Calm Calm - N/A   Clear
2:15 PM 28.0 °F - -5.8 °F 23% 30.24 in 10.0 mi Calm Calm - N/A   Clear
2:35 PM 29.3 °F - -4.4 °F 23% 30.24 in 10.0 mi Calm Calm - N/A   Clear
2:55 PM 29.8 °F 26.3 °F -6.3 °F 21% 30.23 in 10.0 mi West 3.5 mph - N/A   Clear
3:15 PM 30.9 °F 25.2 °F -2.4 °F 24% 30.23 in 10.0 mi WSW 5.8 mph - N/A   Clear
3:35 PM 29.8 °F 23.9 °F -0.2 °F 28% 30.23 in 10.0 mi WSW 5.8 mph - N/A   Clear
3:55 PM 27.0 °F 16.1 °F -3.1 °F 27% 30.23 in 10.0 mi SW 12.7 mph - N/A   Clear
4:15 PM 23.7 °F 12.1 °F -3.1 °F 31% 30.23 in 10.0 mi SW 12.7 mph - N/A   Clear
4:35 PM 21.2 °F 9.5 °F -4.0 °F 33% 30.24 in 10.0 mi SW 11.5 mph - N/A   Clear
4:55 PM 19.6 °F 8.1 °F -3.8 °F 36% 30.24 in 10.0 mi WSW 10.4 mph - N/A   Clear
5:15 PM 18.3 °F 5.9 °F -4.0 °F 37% 30.25 in 10.0 mi WSW 11.5 mph - N/A   Clear
5:35 PM 16.7 °F 2.0 °F -3.6 °F 41% 30.25 in 10.0 mi WSW 15.0 mph 19.6 mph N/A   Clear
5:55 PM 17.6 °F 4.3 °F -4.2 °F 38% 30.26 in 10.0 mi WSW 12.7 mph 19.6 mph N/A   Clear
6:15 PM 17.2 °F 3.9 °F -4.7 °F 38% 30.27 in 10.0 mi WSW 12.7 mph 20.7 mph N/A   Clear
6:35 PM 16.7 °F 2.6 °F -4.7 °F 39% 30.27 in 10.0 mi WSW 13.8 mph 18.4 mph N/A   Clear
6:55 PM 15.1 °F 2.5 °F -4.9 °F 41% 30.28 in 10.0 mi WSW 10.4 mph - N/A   Clear
7:15 PM 15.6 °F 2.5 °F -4.9 °F 40% 30.29 in 10.0 mi WSW 11.5 mph 17.3 mph N/A   Clear
7:35 PM 14.9 °F 3.1 °F -5.8 °F 40% 30.29 in 10.0 mi WSW 9.2 mph - N/A   Clear
7:55 PM 14.7 °F 3.8 °F -6.2 °F 39% 30.29 in 10.0 mi West 8.1 mph - N/A   Clear
8:15 PM 13.3 °F 2.0 °F -5.4 °F 43% 30.29 in 10.0 mi West 8.1 mph - N/A   Clear
8:35 PM 12.6 °F 3.4 °F -6.0 °F 43% 30.29 in 10.0 mi West 5.8 mph - N/A   Clear
8:55 PM 12.7 °F 5.0 °F -6.0 °F 43% 30.29 in 10.0 mi West 4.6 mph - N/A   Clear
9:15 PM 9.5 °F -0.3 °F -5.6 °F 50% 30.29 in 10.0 mi WSW 5.8 mph - N/A   Clear
9:35 PM 11.3 °F 1.9 °F -6.0 °F 46% 30.30 in 10.0 mi West 5.8 mph - N/A   Clear
9:55 PM 7.5 °F 0.8 °F -5.8 °F 55% 30.30 in 10.0 mi WNW 3.5 mph - N/A   Clear
10:15 PM 9.9 °F -1.1 °F -5.3 °F 51% 30.30 in 10.0 mi WSW 6.9 mph - N/A   Clear
10:35 PM 7.2 °F - -6.3 °F 54% 30.30 in 10.0 mi Calm Calm - N/A   Clear
10:55 PM 7.9 °F - -5.3 °F 55% 30.30 in 10.0 mi Calm Calm - N/A   Clear
11:15 PM 8.1 °F - -5.4 °F 54% 30.30 in 10.0 mi Calm Calm - N/A   Clear
11:35 PM 9.0 °F - -5.1 °F 53% 30.30 in 10.0 mi Calm Calm - N/A   Clear
11:55 PM 9.0 °F 2.4 °F -5.3 °F 53% 30.30 in 10.0 mi West 3.5 mph - N/A   Clear